Wind_Speed
11 9 10 11 12 12 11 10 8 6 6 6 8 10 11 14 16 16 16 14 14 13 13 13 13 13 14 13 14 14 14 15 15 13 15 16 16 18 20 21 21 20 20
13 12 12 14 13 12 11 12 11 8 8 9 11 12 14 17 18 18 17 15 12 12 13 13 14 14 14 14 15 15 16 17 17 16 16 17 19 20 20 20 22 23 23
16 14 13 16 18 16 14 14 13 10 10 11 12 15 17 18 17 16 14 13 11 11 12 13 14 15 16 16 16 16 16 17 18 18 18 18 18 20 20 22 23 24 25
17 17 19 23 22 23 16 16 15 10 10 12 15 15 15 17 16 14 12 11 12 13 14 15 15 15 14 15 14 15 16 17 18 19 20 21 21 22 22 23 22 23 25
13 23 39 44 42 49 25 19 14 12 12 14 15 14 16 18 16 14 14 14 15 16 16 16 16 16 16 16 16 16 15 16 16 17 18 20 21 21 23 23 24 25 27
18 22 31 34 23 32 22 17 17 15 12 16 15 16 19 18 15 15 15 15 15 16 16 16 17 17 18 17 17 17 17 17 18 19 19 19 19 21 22 24 25 26 26
14 20 20 16 15 19 22 20 17 14 13 13 15 17 18 16 14 14 14 15 15 15 16 17 18 19 19 20 20 20 20 20 20 21 23 24 25 25 24 25 27 28 30
23 17 12 5 23 15 18 16 12 12 11 13 16 18 16 15 15 15 15 15 16 17 18 19 20 20 20 19 20 20 21 22 23 23 24 25 27 29 30 30 31 30 31
14 14 10 11 11 12 14 13 14 12 11 14 17 18 17 17 17 17 17 17 17 18 19 20 20 20 20 19 19 19 19 21 22 23 25 29 30 31 33 34 35 37 37
12 13 12 14 12 13 15 14 10 8 12 15 16 17 17 17 17 17 18 18 19 19 19 19 19 19 20 20 21 21 22 23 24 26 29 30 31 32 32 34 38 42 45
13 12 12 15 11 12 11 9 8 10 13 14 16 17 17 17 17 16 17 18 18 18 18 20 21 21 22 22 23 23 24 25 26 27 28 29 30 31 32 35 39 42 41
12 14 14 13 11 11 11 10 10 11 13 14 16 17 19 19 20 21 22 22 22 22 21 21 22 22 24 24 25 26 26 26 26 26 27 28 28 30 30 31 38 39 36
13 15 14 15 14 11 11 10 10 11 12 15 17 18 19 20 20 21 21 21 20 19 19 20 21 22 22 23 24 25 25 26 27 28 29 29 29 30 29 30 31 31 31
14 15 17 16 14 14 12 11 11 11 14 15 17 22 21 21 21 22 20 19 17 16 18 19 20 21 22 25 28 31 33 33 31 30 31 32 31 31 31 32 32 30 31
14 17 18 17 16 15 13 12 12 14 16 17 19 22 18 22 20 17 17 16 15 16 17 18 20 21 23 26 30 33 34 35 35 33 33 33 32 31 31 30 32 33 32
13 16 17 15 16 16 14 14 16 19 16 21 24 20 22 18 21 16 13 13 15 15 16 19 21 22 23 29 34 36 34 35 36 34 32 32 32 31 31 29 30 32 33
14 13 15 17 16 16 17 18 20 21 27 24 20 18 22 19 12 10 12 14 15 17 19 21 22 25 27 34 38 38 36 35 35 33 31 30 30 30 30 28 29 31 33
13 13 16 18 18 18 18 20 22 25 20 19 18 14 15 10 10 12 13 14 15 19 22 20 22 26 33 38 39 38 37 36 34 32 30 29 29 29 29 27 29 31 34
13 14 15 17 18 19 20 22 22 20 18 17 13 11 10 12 12 11 13 16 16 17 18 21 26 32 35 38 38 37 37 35 33 31 30 29 28 29 29 27 29 32 34
10 12 16 19 19 19 18 20 21 20 10 5 4 5 9 10 10 14 17 20 18 19 22 28 31 33 36 37 37 37 36 34 31 30 28 28 28 28 27 27 29 32 33
11 15 18 18 17 17 17 17 6 2 3 3 5 8 9 11 11 13 15 16 18 22 27 30 33 37 37 36 35 35 33 31 29 28 27 27 26 26 26 26 28 31 31
17 16 16 14 13 13 12 3 2 2 2 4 5 11 16 15 13 16 18 17 20 26 29 33 35 36 35 34 34 32 30 28 28 27 26 25 25 25 25 25 26 28 29
13 12 10 9 10 8 4 5 3 4 5 6 8 7 12 13 15 15 17 23 25 27 31 32 34 33 32 33 33 31 29 27 27 26 24 24 24 23 22 22 25 27 30
8 9 8 8 7 6 5 5 4 5 7 6 9 11 13 14 13 17 24 24 24 26 29 33 33 31 31 31 31 30 29 27 26 24 23 23 22 20 20 22 25 24 31
9 8 8 7 6 5 6 2 4 6 7 7 8 11 11 12 15 21 20 19 23 25 30 32 31 31 32 31 30 28 27 26 25 23 22 22 21 20 21 24 23 25 28
9 8 8 7 7 8 6 6 6 6 7 8 9 10 11 14 16 17 18 21 24 28 31 33 32 31 31 29 29 27 25 24 23 22 21 21 20 20 20 22 22 26 26
Wind_Direction
228 239 253 259 254 266 262 265 261 288 291 317 328 322 324 330 336 339 339 336 332 329 329 331 332 329 327 326 322 318 316 314 311 307 299 295 290 284 280 278 277 282 288
230 243 253 257 256 256 250 258 255 268 284 297 310 316 323 328 330 327 330 330 327 327 327 329 325 325 321 320 317 315 314 312 312 310 304 297 294 293 291 289 283 281 280
233 246 258 273 269 253 243 248 253 266 284 302 315 317 318 321 324 325 321 324 324 324 325 324 322 321 319 316 315 315 313 310 309 307 302 298 295 291 293 291 291 291 289
245 268 273 269 276 265 241 244 250 263 287 303 313 318 322 326 329 327 325 324 324 323 323 323 321 321 321 321 320 318 317 316 315 311 309 306 303 301 298 293 291 288 286
266 275 273 273 266 256 242 235 246 258 281 301 306 315 319 328 333 332 331 330 329 330 332 330 328 327 326 325 326 326 325 322 320 319 317 315 312 309 305 301 297 293 289
316 297 277 275 248 218 221 221 241 254 279 301 310 315 326 331 332 333 330 329 328 328 327 325 323 323 323 323 322 323 324 324 322 321 318 316 314 313 311 308 304 300 293
286 297 291 288 237 182 215 217 238 257 280 301 310 314 320 323 324 323 321 317 320 321 320 321 323 325 326 326 326 325 323 324 324 324 323 320 318 315 312 309 307 305 302
315 281 282 242 184 205 212 221 239 266 281 298 303 311 314 312 311 311 313 316 321 321 321 322 322 321 320 321 322 322 323 324 324 324 322 321 320 319 318 316 312 307 304
256 262 245 211 199 218 223 227 246 256 277 290 304 312 313 314 317 317 319 319 319 319 320 320 319 318 320 321 321 318 318 320 321 321 322 321 320 319 317 316 314 312 308
244 250 227 200 200 201 215 228 240 271 291 301 312 312 310 312 315 317 319 319 318 319 320 322 320 318 319 318 319 319 320 321 322 322 321 322 322 320 317 315 314 317 314
253 252 219 203 187 196 215 232 250 267 285 301 306 311 316 314 315 314 314 314 316 319 321 323 322 322 323 324 324 323 322 324 324 324 325 325 323 321 318 317 318 320 314
247 219 209 207 199 214 222 232 252 275 294 305 313 320 322 320 317 316 316 316 317 319 322 320 321 324 327 326 326 326 326 324 323 323 321 321 321 319 318 320 326 325 319
230 214 212 212 211 221 229 238 260 279 298 307 313 312 310 308 308 305 305 310 314 319 322 325 325 324 325 325 326 329 327 325 325 325 323 321 320 320 316 318 333 334 328
212 215 213 213 217 224 227 246 266 282 291 296 305 306 303 303 303 305 310 314 316 320 320 324 326 327 329 334 337 341 336 332 327 323 325 322 321 322 322 321 325 328 329
215 208 208 212 217 220 235 251 270 284 291 300 301 297 300 307 304 310 310 310 319 324 323 325 329 331 332 335 337 337 335 330 326 323 322 320 321 320 319 317 319 323 327
209 208 212 217 217 230 246 263 275 282 296 305 296 289 304 301 300 301 300 309 313 316 318 322 327 327 325 332 333 333 332 328 324 320 317 316 316 316 315 314 319 323 325
208 217 218 217 228 245 259 272 284 291 298 297 292 295 304 303 297 300 299 306 310 312 314 321 321 322 323 331 332 331 329 326 322 318 315 314 314 313 315 315 317 322 323
220 219 219 226 240 255 271 281 293 302 308 312 311 307 303 292 300 301 301 304 316 324 325 318 314 321 328 329 329 328 326 323 321 319 317 316 315 314 314 315 316 319 321
218 223 229 239 251 263 276 290 301 306 310 306 307 309 302 310 300 298 308 309 312 315 316 317 322 326 327 327 327 327 325 323 322 320 320 320 316 315 314 315 316 318 321
231 234 241 251 266 278 287 296 296 297 297 309 278 282 288 324 324 321 308 298 308 311 315 323 325 325 326 327 328 327 325 324 322 322 321 319 317 315 315 317 317 320 323
247 256 262 269 274 277 278 291 294 253 245 268 296 296 300 309 308 307 315 309 308 316 323 326 328 328 328 329 328 327 326 324 322 322 322 320 318 318 317 317 319 320 324
258 259 264 265 267 275 287 251 206 249 258 285 302 288 309 316 327 304 311 312 312 323 328 329 329 328 328 328 328 328 328 327 325 324 323 322 322 321 322 321 321 324 330
256 259 262 263 269 269 229 207 235 260 263 271 272 281 301 299 295 305 307 318 318 321 325 328 328 328 328 328 329 331 331 330 328 327 328 328 327 325 324 324 327 335 336
260 259 254 262 255 229 212 228 247 265 254 261 268 284 288 291 305 309 323 320 320 323 327 329 330 330 331 332 334 333 331 331 330 331 332 333 332 330 332 332 334 337 336
247 239 238 253 246 211 230 198 246 288 303 300 293 290 295 299 307 317 323 326 325 327 331 333 334 335 335 335 335 333 330 330 331 335 335 334 334 336 336 337 336 336 341
228 234 247 248 232 220 220 227 249 278 282 285 288 285 299 309 308 317 318 323 328 330 334 337 336 335 334 334 335 334 331 331 332 332 334 335 336 337 338 341 342 342 346
Height
3178 3179 3180 3181 3181 3183 3184 3185 3185 3185 3184 3183 3182 3180 3178 3176 3173 3170 3167 3164 3162 3159 3157 3155 3153 3151 3149 3146 3144 3142 3140 3139 3137 3135 3133 3132 3130 3128 3127 3126 3125 3124 3122
3175 3176 3176 3177 3178 3179 3180 3182 3183 3182 3182 3181 3180 3178 3177 3174 3171 3168 3165 3162 3159 3157 3156 3154 3151 3149 3147 3144 3142 3139 3137 3135 3134 3132 3130 3128 3126 3124 3123 3121 3119 3117 3116
3171 3172 3173 3174 3175 3176 3176 3178 3179 3179 3179 3179 3177 3175 3173 3170 3167 3164 3161 3159 3157 3155 3152 3150 3148 3147 3145 3142 3139 3136 3134 3132 3130 3128 3127 3125 3122 3120 3118 3116 3115 3113 3110
3169 3169 3169 3170 3172 3172 3173 3175 3176 3177 3177 3175 3173 3171 3169 3167 3164 3161 3158 3157 3155 3153 3151 3148 3145 3143 3141 3139 3136 3132 3129 3127 3126 3124 3122 3119 3117 3115 3113 3111 3110 3108 3106
3168 3165 3163 3158 3159 3164 3169 3171 3174 3173 3173 3171 3169 3167 3166 3163 3161 3159 3157 3155 3153 3150 3148 3145 3142 3139 3137 3135 3132 3128 3124 3122 3120 3118 3116 3114 3111 3109 3107 3105 3104 3102 3100
3162 3158 3155 3151 3141 3152 3161 3167 3170 3170 3169 3169 3167 3166 3163 3160 3158 3156 3154 3152 3149 3146 3143 3141 3138 3135 3132 3129 3126 3124 3121 3118 3116 3113 3111 3108 3105 3103 3101 3098 3096 3094 3093
3152 3151 3149 3146 3144 3150 3158 3162 3164 3165 3166 3166 3164 3162 3159 3156 3153 3151 3150 3147 3144 3141 3139 3136 3133 3130 3128 3125 3122 3119 3116 3113 3110 3107 3105 3102 3099 3096 3094 3092 3088 3086 3083
3149 3148 3145 3145 3146 3151 3156 3159 3161 3162 3162 3162 3160 3157 3154 3152 3150 3148 3146 3145 3142 3139 3137 3134 3131 3128 3125 3122 3118 3115 3112 3108 3105 3103 3100 3096 3092 3088 3085 3082 3080 3078 3075
3146 3146 3144 3145 3147 3149 3154 3157 3158 3158 3158 3157 3155 3154 3153 3151 3148 3146 3144 3141 3138 3137 3135 3132 3129 3126 3122 3119 3116 3112 3108 3104 3101 3098 3094 3090 3085 3081 3077 3073 3070 3067 3065
3144 3144 3143 3144 3146 3148 3151 3154 3154 3155 3155 3154 3152 3151 3150 3147 3144 3143 3141 3138 3136 3133 3131 3128 3124 3120 3116 3113 3109 3105 3102 3098 3095 3091 3087 3083 3079 3074 3070 3066 3061 3055 3049
3142 3141 3140 3142 3143 3146 3148 3150 3150 3151 3151 3150 3149 3147 3145 3142 3140 3138 3136 3134 3130 3128 3124 3121 3118 3116 3112 3108 3105 3101 3096 3092 3089 3085 3081 3078 3074 3069 3065 3059 3053 3048 3041
3139 3138 3138 3140 3141 3143 3145 3146 3147 3147 3147 3146 3145 3142 3140 3138 3136 3134 3132 3129 3126 3124 3121 3118 3115 3113 3109 3105 3101 3097 3093 3088 3084 3081 3077 3073 3069 3065 3059 3054 3046 3039 3032
3134 3135 3136 3137 3140 3142 3144 3144 3144 3143 3143 3143 3142 3140 3137 3134 3131 3129 3127 3125 3123 3119 3117 3114 3111 3107 3104 3100 3096 3092 3088 3083 3078 3074 3071 3067 3062 3057 3053 3048 3043 3035 3027
3134 3133 3133 3135 3137 3139 3140 3141 3141 3141 3141 3140 3138 3136 3132 3129 3126 3124 3122 3120 3118 3116 3113 3110 3108 3104 3101 3095 3089 3084 3079 3075 3072 3067 3062 3059 3054 3049 3043 3038 3034 3031 3025
3128 3130 3132 3132 3134 3136 3138 3139 3139 3139 3138 3135 3132 3130 3127 3125 3122 3121 3119 3116 3114 3112 3110 3107 3104 3101 3097 3093 3087 3081 3076 3070 3066 3062 3057 3051 3047 3042 3037 3032 3027 3023 3017
3125 3127 3129 3130 3132 3134 3135 3135 3135 3134 3131 3129 3126 3124 3122 3121 3118 3114 3114 3113 3111 3109 3107 3103 3102 3099 3094 3089 3082 3076 3071 3065 3060 3054 3049 3044 3039 3035 3030 3026 3022 3017 3010
3123 3124 3126 3128 3128 3130 3131 3131 3129 3127 3126 3123 3121 3119 3117 3115 3112 3111 3110 3109 3106 3105 3102 3100 3099 3096 3089 3083 3077 3070 3063 3059 3053 3048 3043 3038 3033 3028 3024 3019 3015 3010 3005
3122 3122 3123 3125 3126 3127 3127 3125 3123 3121 3118 3116 3115 3114 3114 3112 3110 3109 3108 3107 3104 3103 3099 3099 3095 3089 3083 3077 3069 3063 3057 3052 3046 3040 3035 3030 3025 3021 3016 3012 3009 3004 2998
3118 3119 3121 3122 3123 3121 3120 3117 3116 3114 3113 3112 3111 3110 3109 3108 3107 3106 3105 3103 3102 3100 3098 3093 3087 3082 3076 3070 3063 3056 3050 3043 3038 3033 3027 3023 3018 3014 3009 3006 3001 2997 2991
3114 3116 3117 3117 3115 3114 3113 3112 3112 3111 3110 3108 3109 3109 3108 3105 3106 3106 3104 3102 3099 3096 3092 3086 3081 3075 3069 3062 3055 3049 3043 3036 3031 3026 3021 3016 3012 3007 3003 2999 2995 2991 2985
3111 3110 3110 3110 3110 3109 3109 3109 3108 3108 3108 3108 3108 3107 3105 3104 3103 3103 3101 3098 3094 3090 3085 3080 3074 3068 3062 3055 3049 3043 3036 3030 3025 3020 3015 3010 3006 3001 2997 2994 2990 2985 2980
3105 3106 3106 3106 3105 3104 3104 3104 3105 3106 3107 3108 3108 3104 3103 3101 3101 3099 3096 3093 3088 3083 3079 3073 3068 3062 3056 3049 3043 3037 3030 3024 3019 3014 3009 3005 3000 2996 2992 2988 2984 2979 2974
3101 3101 3101 3101 3101 3100 3100 3102 3102 3104 3105 3105 3105 3104 3101 3100 3098 3095 3092 3086 3083 3078 3074 3069 3063 3057 3050 3043 3037 3030 3024 3019 3014 3009 3004 2999 2995 2991 2987 2983 2979 2974 2968
3097 3097 3097 3097 3098 3098 3099 3100 3100 3099 3099 3100 3100 3099 3097 3095 3094 3090 3084 3080 3077 3074 3069 3063 3057 3050 3044 3037 3030 3024 3019 3014 3010 3005 3000 2995 2991 2987 2983 2979 2975 2971 2964
3094 3094 3094 3095 3095 3096 3097 3097 3099 3099 3098 3096 3095 3094 3093 3091 3088 3082 3079 3075 3072 3068 3063 3057 3050 3044 3038 3032 3026 3020 3015 3010 3005 3001 2996 2991 2987 2983 2979 2976 2971 2966 2960
3090 3092 3092 3092 3093 3094 3094 3096 3096 3096 3095 3094 3092 3090 3088 3085 3081 3077 3074 3071 3067 3062 3057 3051 3045 3039 3034 3028 3022 3017 3012 3007 3002 2997 2993 2988 2984 2980 2976 2972 2967 2962 2957